Tracking 17694 objects as of 30-May-2016
HD Live streaming from Space Station
objects crossing your sky now

ATLAS CENTAUR R/B

Track ATLAS CENTAUR R/B now!


NORAD ID: 10976
Int'l Code: 1978-068B
Perigee: 643.7 km
Apogee: 36,211.9 km
Inclination: 21.8 °
Period: 647.7 minutes
Semi major axis: 24798 km
RCS: 16.8333 m2 (large)
Launch date: June 29, 1978
Source: United States (US)
Launch site: AIR FORCE EASTERN TEST RANGE (AFETR)

Note: This is a ROCKET BODY
Your satellite tracking list
Your tracking list is empty





NASA's NSSDC Master Catalog

Two Line Element Set (TLE):
1 10976U 78068B   16151.34424341 -.00000154  00000-0 -20540-2 0  9996
2 10976  21.8402 335.1084 7171346  23.1578 100.9661  2.22309104307737
Source of the keplerian elements: AFSPC

N2YO: 490